DateTimeUTC,F1_A11,F1_S11,BsB_S11,BsG_S11,BsR_S11,BbsB_S11,BbsG_S11,BbsR_S11,BaB_A11,BaG_A11,BaR_A11,Tu_S11,T_S11,Uu_S11,U_S11,P_S11,T1_A11
2021-10-06T19:00:00Z,00000200,21000000,,,,,,,0000.43,0000.24,0000.40,16.4,23.7,,00.0,0669.3,30.9
2021-10-06T19:01:00Z,00000200,21000000,,,,,,,-000.19,0000.23,0000.06,16.4,23.7,,00.0,0669.3,30.9
2021-10-06T19:02:00Z,00000200,21000000,,,,,,,0000.09,0000.17,-000.01,16.4,23.8,,00.0,0669.3,30.9
2021-10-06T19:03:00Z,00000200,61000000,,,,,,,0000.19,-000.11,0000.08,16.5,23.8,,00.0,0669.3,30.9
2021-10-06T19:04:00Z,00000200,41000000,0000.32,0000.41,0000.18,0000.27,0000.03,-000.15,-000.39,-000.24,-000.20,16.9,23.7,,00.0,0670.2,30.9
2021-10-06T19:05:00Z,00000200,01000000,0000.86,0000.23,0000.38,-000.26,0000.03,0000.28,-000.06,0000.19,-000.31,17.0,23.7,,00.0,0670.3,30.9
2021-10-06T19:06:00Z,00000200,01000000,0000.61,0000.22,0000.05,-000.13,-000.14,0000.48,-000.22,-000.51,0000.11,17.0,23.7,,00.0,0670.3,30.9
2021-10-06T19:07:00Z,00000200,01000000,-000.12,0000.37,0000.39,-000.26,0000.02,0000.18,-000.14,-000.27,-000.17,16.9,23.6,,00.0,0670.3,30.9
2021-10-06T19:08:00Z,00000200,01000000,0000.66,0000.44,0000.27,-000.08,0000.39,0000.32,0000.46,0000.12,0000.17,16.9,23.6,,00.0,0670.3,30.9
2021-10-06T19:09:00Z,00000200,01000000,0000.97,0000.39,0000.10,0000.11,-000.11,-000.02,-000.26,-000.14,-000.24,16.8,23.5,,00.0,0670.3,30.9
2021-10-06T19:10:00Z,00000200,01000000,0000.86,0000.44,-000.16,0000.49,0000.09,-000.07,0000.52,0000.09,0000.29,16.7,23.5,,00.0,0670.3,30.9
2021-10-06T19:11:00Z,00000200,01000000,0000.51,0000.40,0000.23,0000.03,-000.19,-000.30,-000.06,0000.46,-000.26,16.6,23.4,,00.0,0670.3,30.9
2021-10-06T19:12:00Z,00000200,01000000,0000.21,0000.03,0000.35,-000.05,0000.01,0000.09,0000.26,0000.38,0000.45,16.6,23.4,,00.0,0670.3,30.8
2021-10-06T19:13:00Z,00000200,01000000,0000.34,-000.03,0000.21,-000.03,0000.23,-000.04,0000.09,-000.21,-000.12,16.5,23.4,,00.0,0670.3,30.8
2021-10-06T19:14:00Z,00000200,01000000,0000.56,0000.26,0000.25,-000.22,-000.10,0000.22,-000.18,0000.14,0000.09,16.5,23.3,,00.0,0670.3,30.8
2021-10-06T19:15:00Z,00000200,01000000,0000.61,0000.26,0000.24,0000.75,-000.34,0000.18,0000.58,-000.00,0000.32,16.6,23.3,,00.0,0670.3,30.9
2021-10-06T19:16:00Z,00000200,01000000,0000.07,0000.52,0000.21,0000.06,-000.17,0000.27,0000.36,0001.20,0000.59,16.6,23.4,,00.0,0670.3,30.9
2021-10-06T19:17:00Z,00000200,01000000,0001.37,0000.32,0000.05,0000.21,-000.18,0000.02,0000.87,0000.50,0000.65,16.7,23.4,,00.0,0670.3,30.9
2021-10-06T19:18:00Z,00000200,01000000,0000.59,0000.32,0000.37,0000.11,-000.11,0000.28,0000.10,0000.11,0000.30,16.8,23.5,,00.0,0670.3,30.9
2021-10-06T19:19:00Z,00000200,01000000,0001.03,0000.35,0000.23,0000.21,0000.02,0000.31,0000.33,0000.50,-000.09,16.9,23.5,,00.0,0670.3,30.9
2021-10-06T19:20:00Z,00000200,01000000,0000.95,0000.01,0000.30,-000.25,-000.04,0000.29,-000.35,-000.41,-000.22,17.0,23.5,,00.0,0670.3,30.9
2021-10-06T19:21:00Z,00000200,01000000,0001.14,0000.40,-000.07,-000.73,-000.44,-000.19,0000.57,0000.25,0000.29,17.0,23.5,,00.0,0670.4,30.9
2021-10-06T19:22:00Z,00000200,01000000,0000.13,0000.07,0000.11,0000.07,0000.38,0000.00,-000.29,-000.30,-000.15,17.1,23.6,,00.0,0670.4,30.9
2021-10-06T19:23:00Z,00000200,01000000,0000.01,0000.45,0000.33,0000.60,-000.06,0000.17,0000.16,0000.07,-000.13,17.0,23.6,,00.0,0670.4,30.9
2021-10-06T19:24:00Z,00000200,01000000,0000.76,-000.13,0000.03,0000.38,-000.17,0000.03,0000.04,0000.19,-000.16,17.0,23.5,,00.0,0670.4,30.9
2021-10-06T19:25:00Z,00000200,01000000,0001.21,0000.41,0000.18,-000.63,0000.07,-000.23,-000.03,-000.01,0000.28,16.9,23.5,,00.0,0670.4,30.9
2021-10-06T19:26:00Z,00000200,01000000,0000.32,0000.28,0000.18,-000.80,-000.29,-000.10,-000.25,-000.07,0000.01,16.8,23.4,,00.0,0670.4,30.8
2021-10-06T19:27:00Z,00000200,01000000,0000.33,0000.05,0000.00,-000.26,0000.22,0000.13,0000.77,0000.06,0000.08,16.7,23.4,,00.0,0670.3,30.8
2021-10-06T19:28:00Z,00000200,01000000,0000.66,0000.08,0000.23,0000.04,-000.11,0000.30,-000.06,0000.43,0000.24,16.7,23.4,,00.0,0670.3,30.8
2021-10-06T19:29:00Z,00000200,01000000,0000.62,0000.35,-000.01,-000.25,-000.07,-000.07,0000.44,0000.37,0000.47,16.7,23.3,,00.0,0670.3,30.8
2021-10-06T19:30:00Z,00000200,01000000,0000.44,0000.40,0000.12,-000.27,0000.22,0000.01,0000.12,0000.30,-000.18,16.7,23.4,,00.0,0670.3,30.9
2021-10-06T19:31:00Z,00000200,01000000,0001.38,-000.04,0000.22,-000.06,0000.03,0000.21,0000.32,0000.06,0000.13,16.7,23.4,,00.0,0670.3,30.9
2021-10-06T19:32:00Z,00000200,01000000,0000.32,0000.56,0000.31,0000.19,-000.09,0000.01,0000.32,0000.33,0000.07,16.8,23.4,,00.0,0670.3,30.9
2021-10-06T19:33:00Z,00000200,01000000,0000.57,0000.48,0000.22,-000.25,-000.30,0000.09,-000.06,-000.13,0000.50,16.9,23.4,,00.0,0670.3,30.9
2021-10-06T19:34:00Z,00000200,01000000,0000.34,-000.10,0000.26,-000.29,-000.07,-000.09,0000.03,0000.47,-000.07,17.0,23.5,,00.0,0670.3,30.9
2021-10-06T19:35:00Z,00000200,01000000,0000.55,0000.20,0000.13,-000.21,0000.09,0000.15,0000.14,-000.40,0000.25,17.1,23.5,,00.0,0670.3,30.9
2021-10-06T19:36:00Z,00000200,01000000,0001.51,0000.54,0000.27,-000.28,0000.30,-000.03,-000.11,0000.39,-000.20,17.1,23.5,,00.0,0670.3,30.9
2021-10-06T19:37:00Z,00000200,01000000,0000.47,0000.12,0000.42,-000.34,0000.03,0000.28,0000.10,-000.23,-000.09,17.2,23.6,,00.0,0670.4,30.9
2021-10-06T19:38:00Z,00000200,01000000,0000.98,0000.64,0000.35,-000.46,-000.20,-000.12,-000.36,-000.15,-000.08,17.1,23.6,,00.0,0670.3,30.9
2021-10-06T19:39:00Z,00000200,01000000,0000.57,0000.51,0000.23,-000.06,-000.11,0000.40,0000.04,-000.25,-000.08,17.1,23.6,,00.0,0670.4,30.9
2021-10-06T19:40:00Z,00000200,01000000,0000.56,0000.14,0000.23,-000.01,0000.15,0000.12,0000.30,0000.16,0000.07,17.0,23.5,,00.0,0670.4,30.9
2021-10-06T19:41:00Z,00000200,01000000,0000.85,0000.60,0000.10,-000.28,0000.13,0000.02,-000.00,0000.54,-000.05,16.9,23.5,,00.0,0670.4,30.9
2021-10-06T19:42:00Z,00000200,01000000,0000.55,0000.32,0000.26,-000.32,-000.28,0000.18,0000.21,-000.36,0000.12,16.8,23.4,,00.0,0670.4,30.9
2021-10-06T19:43:00Z,00000200,01000000,0001.13,0000.02,0000.33,0000.09,0000.08,0000.16,0000.55,0000.58,0000.34,16.8,23.4,,00.0,0670.3,30.8
2021-10-06T19:44:00Z,00000200,01000000,0001.00,0000.03,0000.33,-000.00,-000.28,0000.23,0000.47,0000.11,0000.45,16.7,23.4,,00.0,0670.4,30.8
2021-10-06T19:45:00Z,00000200,01000000,0000.34,0000.27,0000.11,-000.36,0000.02,-000.14,0000.25,0000.61,-000.09,16.8,23.4,,00.0,0670.4,30.9
2021-10-06T19:46:00Z,00000200,01000000,0000.58,0000.64,0000.38,-000.12,-000.30,0000.22,0000.02,0000.04,0000.62,16.8,23.4,,00.0,0670.3,30.9
2021-10-06T19:47:00Z,00000200,01000000,0000.70,0000.11,-000.13,-000.65,0000.28,-000.42,0000.13,0000.06,0000.08,16.9,23.4,,00.0,0670.4,30.9
2021-10-06T19:48:00Z,00000200,01000000,0000.70,0000.28,0000.25,-000.27,0000.20,0000.35,0000.07,0000.12,-000.28,17.0,23.5,,00.0,0670.4,30.9
2021-10-06T19:49:00Z,00000200,01000000,0001.25,0000.20,0000.33,-000.55,-000.10,0000.43,-000.16,0000.07,-000.15,17.0,23.5,,00.0,0670.4,30.9
2021-10-06T19:50:00Z,00000200,01000000,0001.15,0000.16,0000.25,-000.21,-000.21,0000.05,0000.11,0000.03,0000.59,17.1,23.5,,00.0,0670.4,30.9
2021-10-06T19:51:00Z,00000200,01000000,0000.86,0000.09,0000.13,-000.08,0000.12,0000.12,0000.04,0000.38,-000.21,17.1,23.6,,00.0,0670.4,30.9
2021-10-06T19:52:00Z,00000200,01000000,0000.30,0000.22,-000.22,-000.21,-000.16,-000.04,-000.11,-000.33,0000.18,17.1,23.6,,00.0,0670.4,30.9
2021-10-06T19:53:00Z,00000200,01000000,0000.68,0000.33,0000.05,-000.60,0000.02,0000.22,0000.48,0000.20,-000.29,17.0,23.5,,00.0,0670.4,30.9
2021-10-06T19:54:00Z,00000200,01000000,0000.90,0000.15,0000.12,0000.54,-000.03,-000.02,-000.21,0000.01,-000.02,17.0,23.5,,00.0,0670.3,30.9
2021-10-06T19:55:00Z,00000200,01000000,0000.44,0000.24,0000.50,0000.10,-000.03,0000.31,0000.24,-000.26,-000.02,16.9,23.4,,00.0,0670.3,30.9
2021-10-06T19:56:00Z,00000200,01000000,0000.02,0000.05,0000.41,-000.13,-000.01,0000.11,-000.11,0000.21,0000.05,16.8,23.4,,00.0,0670.3,30.8
2021-10-06T19:57:00Z,00000200,41000000,,,,,,,-000.22,-000.08,-000.22,16.8,23.4,,00.0,0670.4,30.9
2021-10-06T19:58:00Z,00000200,61000000,,,,,,,0000.21,-000.10,0000.12,16.4,23.5,,00.0,0669.4,30.9
2021-10-06T19:59:00Z,00000200,21000000,,,,,,,0000.43,0000.14,0000.83,16.3,23.6,,00.0,0669.4,30.8
